SCP
0 0 0 0 0 0 0 0 0 0 0 0 0 0 0 0 0 0 0 0 0 0 0 0 0 0 0 0 0 0 -0 0 0 0 0 0 0 0 0 0 0 0 0
0 0 0 0 0 0 0 0 0 0 0 0 0 0 0 0 0 0 0 0 0 0 0 0 0 0 0 0 0 0 0 0 0 0 0 0 0 0 0 0 0 0 0
0 0 0 0 0 0 0 0 0 0 0 0 0 0 0 0 0 0 0 0 0 0 0 0 0 0 0 0 0 0 0 0 0 0 0 0 0 0 0 0 0 0 0
0 0 0 0 0 0 0 0 0 0 0 0 0 0 0 0 0 0 0 0 0 0 0 0 0 0 0 0 0 0 0 0 0 0 0 0 0 0 0 0 0 0 0
0 0 0 0 0 0 0 0 0 0 0 0 0 0 0 0 0 0 0 0 0 0 0 0 0 0 0 0 0 0 0 0 0 0 0 0 0 0 0 0 0 0 0
0 0 0 0 0 0 0 0 0 0 0 0 0 0 0 0 0 0 0 0 0 0 0 0 0 0 0 0 0 0 0 0 0 0 0 0 0 0 0 0 0 0 0
0 0 0 0 0 0 0 0 0 0 0 0 0 0 0 0 0 0 0 0 0 0 0 0 0 0 0 0 0 0 0 0 0 0 0 0 0 0 0 0 0 0 0
0 0 0 0 0 0 0 0 0 0 0 0 0 0 0 0 0 0 0 0 0 0 0 0 0 0 0 0 0 0 0 0 0 0 0 0 0 0 0 0 0 0 0
0 0 0 0 0 0 0 0 0 0 0 0 0 0 0 0 0 0 0 0 0 0 0 0 0 0 0 0 0 0 0 0 0 0 0 0 0 0 0 0 0 0 0
0 0 0 0 0 0 0 0 0 0 0 0 0 0 0 0 0 0 0 0 0 0 0 0 0 0 0 0 0 0 0 0 0 0 0 0 0 0 0 0 0 0 0
0 0 0 0 0 0 0 0 0 0 0 0 0 0 0 0 0 0 0 0 0 0 0 0 0 0 0 0 0 0 0 0 0 0 0 0 0 0 0 0 0 0 0
0 0 0 0 0 0 0 0 0 0 0 0 0 0 0 0 0 0 0 0 0 0 0 0 0 0 0 0 0 0 0 0 0 0 0 0 0 0 0 0 0 0 0
0 0 0 0 0 0 0 0 0 0 0 0 0 0 0 0 0 0 0 0 0 0 0 0 0 0 0 0 0 0 0 0 0 0 0 0 0 0 0 0 0 0 0
0 0 0 0 0 0 0 0 0 0 0 0 0 0 0 0 0 0 0 0 0 0 0 0 0 0 0 0 0 0 0 0 0 0 0 0 0 0 0 0 0 0 0
0 0 0 0 0 0 0 0 0 0 0 0 0 0 0 0 0 0 0 0 0 0 0 0 0 0 0 0 0 0 0 0 0 0 0 0 0 0 0 0 0 0 0
0 0 0 0 0 0 0 0 0 0 0 0 0 0 0 0 0 0 0 0 0 0 0 0 0 0 0 0 0 0 0 0 0 0 0 0 0 0 0 0 0 0 0
0 0 0 0 0 0 0 0 0 0 0 0 0 0 0 0 0 0 0 0 0 0 0 0 0 0 0 0 0 0 0 0 0 0 0 0 0 0 0 0 0 0 0
0 0 0 0 0 0 0 0 0 0 0 0 0 0 0 0 0 0 0 0 0 0 0 0 0 0 0 0 0 0 0 0 0 0 0 0 0 0 0 0 0 0 0
0 0 0 0 0 0 0 0 0 0 0 0 0 0 0 0 0 0 0 0 0 0 0 0 0 0 0 0 0 0 0 0 0 0 0 0 0 0 0 0 0 0 0
0 0 0 0 0 0 0 0 0 0 0 0 0 0 0 0 0 0 0 0 0 0 0 0 0 0 0 0 0 0 0 0 0 0 0 0 0 0 0 0 0 0 0
0 0 0 0 0 0 0 0 0 0 0 0 0 0 0 0 0 0 0 0 0 0 0 0 0 0 0 0 0 0 0 0 0 0 0 0 0 0 0 0 0 0 0
0 0 0 0 0 0 0 0 0 0 0 0 0 0 0 0 0 0 0 0 0 0 0 0 0 0 0 0 0 0 0 0 0 0 0 0 0 0 0 0 0 0 0
0 0 0 0 0 0 0 0 0 0 0 0 0 0 0 0 0 0 0 0 0 0 0 0 0 0 0 0 0 0 0 0 0 0 0 0 0 0 0 0 0 0 0
0 0 0 0 0 0 0 0 0 0 0 0 0 0 0 0 0 0 0 0 0 0 0 0 0 0 0 0 0 0 0 0 0 0 0 0 0 0 0 0 0 0 0
0 0 0 0 0 0 0 0 0 0 0 0 0 0 0 0 0 0 0 0 0 0 0 0 0 0 0 0 0 0 0 0 0 0 0 0 0 0 0 0 0 0 0
0 0 0 0 0 0 0 0 0 0 0 0 0 0 0 0 0 0 0 0 0 0 0 0 0 0 0 0 0 0 0 0 0 0 0 0 0 0 0 0 0 0 0
Wind_Speed_500mb
12 15 19 22 25 28 30 31 31 32 31 28 27 28 31 34 35 36 37 38 39 41 43 47 48 50 49 50 49 48 44 46 62 87 88 91 90 91 88 80 85 80 76
15 18 21 23 26 28 30 31 31 28 25 24 25 28 31 32 33 36 39 42 45 47 49 51 52 52 53 53 53 53 52 49 53 81 87 94 89 83 89 85 86 83 78
16 19 22 25 27 30 31 32 29 26 23 22 24 25 28 33 38 41 44 48 51 52 52 54 54 54 53 50 52 51 53 50 54 66 89 86 82 81 90 81 86 86 79
18 20 23 26 28 31 32 30 27 24 23 23 24 27 31 35 40 44 48 52 54 54 55 54 53 51 51 50 49 53 52 53 56 62 76 84 67 85 85 77 89 87 83
21 23 26 29 32 33 33 31 27 25 24 24 26 29 34 39 45 50 52 55 57 56 55 53 52 49 50 45 53 51 50 56 59 60 68 74 67 85 84 71 74 88 84
25 27 29 32 35 36 34 31 29 28 27 28 30 34 39 43 46 50 55 58 58 57 55 56 53 52 49 51 49 40 43 55 48 55 67 61 77 82 79 65 75 77 87
29 30 31 34 37 38 36 34 34 33 33 34 36 38 41 46 51 55 58 59 57 56 56 55 52 53 48 58 49 49 60 38 39 50 52 60 76 76 66 66 62 72 73
31 33 35 38 41 40 39 38 39 39 39 39 40 43 47 52 55 58 61 60 59 57 55 53 51 45 55 47 50 60 66 61 57 40 46 62 65 62 59 56 66 71 72
33 35 37 42 42 42 41 40 41 42 42 42 44 47 51 54 58 61 63 61 60 58 55 52 50 54 48 44 46 61 69 66 53 52 57 60 60 60 60 60 64 66 75
35 37 41 43 43 42 41 41 43 43 42 44 46 50 54 57 60 61 61 58 57 57 55 54 53 52 42 38 45 60 69 64 63 71 68 61 56 57 56 56 56 58 63
37 40 43 44 43 43 42 40 42 43 44 45 48 51 55 59 61 61 57 54 53 53 55 59 59 49 39 41 42 56 60 58 69 68 68 65 62 60 58 55 53 53 57
39 44 46 46 45 43 43 43 44 44 46 49 52 55 57 59 61 58 54 51 44 47 50 56 56 46 46 47 58 64 53 62 66 69 69 67 65 63 61 57 54 52 51
44 47 48 48 47 46 45 44 44 44 47 50 54 58 58 60 61 56 52 50 47 43 47 47 59 61 65 67 65 61 61 62 65 66 66 64 61 61 60 58 53 52 51
47 48 50 52 50 49 47 45 45 46 49 52 55 57 59 62 62 57 54 53 52 51 56 60 59 63 62 60 55 52 52 54 57 60 62 61 61 60 58 57 60 59 61
49 51 51 51 51 50 49 47 47 47 50 53 53 55 60 64 61 56 47 48 48 54 55 60 62 60 60 59 55 52 52 53 56 58 61 63 63 63 61 58 58 59 60
49 50 50 51 53 53 51 49 49 49 50 51 50 52 56 61 59 53 46 38 46 59 61 64 62 62 62 63 62 62 57 57 58 60 61 63 65 64 65 61 58 58 61
51 52 53 54 54 53 52 52 52 49 49 50 48 49 55 59 56 54 50 38 51 57 58 60 61 62 63 64 65 64 64 62 61 61 63 62 63 64 65 63 61 61 61
55 57 59 57 55 54 53 53 52 50 51 50 46 49 53 55 54 55 56 59 56 52 59 61 63 63 64 66 68 69 68 66 65 65 65 65 64 64 65 64 63 64 63
61 62 60 57 55 53 53 53 51 51 51 49 48 48 52 53 52 51 54 56 60 59 59 60 61 65 65 66 67 69 69 67 67 66 65 66 65 65 65 63 63 62 62
65 63 61 57 53 52 52 51 50 49 48 47 48 52 51 53 50 48 49 54 58 61 63 66 65 65 66 66 66 67 69 67 66 65 64 65 65 64 65 63 61 62 60
64 60 58 55 52 49 48 48 46 47 44 44 47 48 51 56 54 53 54 55 58 62 65 67 66 66 64 63 63 63 63 64 63 64 63 62 62 63 61 60 59 57 57
58 56 53 49 46 45 43 42 43 42 41 45 46 43 46 48 51 54 56 59 61 63 66 69 67 62 60 61 62 65 65 64 61 60 60 59 60 59 58 57 56 55 55
50 46 43 42 40 38 38 38 37 38 40 46 46 45 43 45 49 53 57 60 64 65 61 59 61 61 59 58 57 58 61 58 57 57 60 61 61 60 57 56 55 55 55
40 39 39 35 34 33 32 32 34 37 43 44 45 45 46 48 51 54 59 63 63 58 55 58 59 60 61 58 54 50 52 53 56 57 58 61 60 56 55 53 52 53 52
37 33 31 30 29 28 29 30 34 39 42 43 42 43 45 50 54 58 61 60 56 57 57 57 57 58 57 54 51 51 53 53 53 52 52 53 53 47 46 51 55 56 53
32 30 28 26 25 27 29 32 34 38 38 38 39 43 48 52 57 61 57 54 56 57 58 58 56 54 52 51 51 54 52 49 48 48 53 54 54 48 56 61 61 62 59
Wind_Direction_500mb
343 345 343 345 343 340 336 334 329 328 328 329 335 341 343 342 343 342 342 342 340 339 338 338 337 335 334 334 334 338 334 326 314 318 324 330 332 331 334 334 333 337 340
336 338 338 335 334 329 326 322 321 321 323 328 334 338 338 337 339 339 338 336 336 336 335 336 337 335 335 337 337 336 334 329 317 316 326 330 333 331 334 331 331 336 340
325 327 325 324 323 322 321 318 316 317 317 322 326 330 334 337 338 337 337 337 336 335 335 335 333 332 333 333 335 334 331 328 326 320 322 329 331 328 332 332 327 334 340
311 310 311 314 318 319 317 314 310 307 308 314 318 328 332 332 335 336 337 336 331 329 329 330 330 331 330 332 335 333 336 332 329 322 322 326 326 327 331 334 327 335 338
296 301 309 314 317 318 317 311 302 296 296 304 312 319 326 332 334 333 331 329 326 327 328 328 328 327 327 330 334 335 333 327 324 325 320 326 322 329 335 334 323 331 334
295 300 305 312 315 317 312 301 292 288 293 300 312 317 322 325 325 326 328 329 326 327 328 327 325 328 323 325 334 332 325 324 330 317 321 317 318 326 329 329 326 329 330
289 294 303 310 314 313 308 300 293 292 295 298 302 310 316 318 322 327 329 328 324 326 326 325 322 323 320 326 340 321 326 330 320 319 315 311 319 325 324 323 323 322 323
289 296 304 310 312 309 304 297 290 287 289 294 299 305 311 320 324 327 327 326 324 324 325 325 323 321 321 327 331 317 322 324 330 317 310 318 320 319 318 318 316 316 317
292 297 305 308 306 305 300 292 288 285 286 291 299 307 314 319 323 326 326 325 324 324 325 325 325 321 324 329 315 312 317 325 324 316 316 316 314 315 316 314 320 322 322
291 297 301 304 305 302 296 290 284 284 292 298 303 309 314 319 323 323 324 323 321 322 323 325 326 324 326 323 316 313 318 328 320 312 315 318 317 316 315 317 320 320 322
290 295 300 301 300 297 292 291 292 292 293 297 303 309 313 317 320 323 322 321 320 322 318 322 326 328 322 315 317 312 322 314 304 313 316 319 320 319 319 319 320 318 316
292 298 300 299 298 297 297 295 291 291 296 301 306 310 312 314 318 321 321 320 320 315 316 317 322 321 315 317 317 318 315 309 312 315 316 319 320 321 320 321 320 317 313
295 299 299 297 297 295 293 289 289 293 297 303 308 310 311 313 318 321 321 318 317 317 314 314 310 315 318 317 319 319 316 314 314 315 317 319 321 321 321 321 321 320 316
299 302 298 295 294 291 289 290 292 295 299 304 306 307 309 313 320 320 319 321 324 323 318 315 315 315 314 314 315 316 316 317 317 318 318 319 320 321 322 323 324 325 321
299 297 295 295 292 290 290 291 291 293 296 300 303 306 311 316 319 320 319 318 325 310 306 312 316 316 318 320 320 320 319 319 318 317 317 319 320 320 321 322 323 322 321
297 302 302 298 294 292 291 289 289 290 294 300 302 305 309 312 313 315 314 316 302 299 312 315 317 318 320 321 322 323 324 323 320 319 318 318 319 319 319 321 321 320 320
299 302 301 298 294 291 288 289 289 287 294 297 298 303 308 309 312 315 316 312 309 311 314 316 316 318 320 320 320 321 321 320 318 318 316 317 318 318 317 319 321 321 321
296 299 299 298 294 291 289 288 288 289 293 298 301 306 308 309 314 315 313 311 315 314 312 314 315 317 318 317 317 316 316 316 316 315 314 314 314 314 314 316 317 318 320
293 295 296 295 293 290 288 288 288 289 294 299 301 306 309 309 310 311 311 313 314 314 313 315 316 316 317 316 315 314 315 316 315 314 313 311 311 311 311 313 314 314 316
292 294 294 293 291 288 287 288 287 289 295 299 304 308 309 307 311 310 312 313 314 315 316 317 317 317 317 317 316 314 314 316 315 314 313 312 312 311 313 314 314 313 314
292 293 293 290 288 287 284 284 285 290 294 296 305 306 309 311 315 315 316 315 315 315 316 315 317 318 318 317 317 316 317 317 318 317 317 317 316 317 320 319 318 316 315
293 293 291 288 285 285 285 284 286 290 292 299 303 306 306 308 310 313 315 316 317 318 317 316 318 320 321 320 319 318 317 318 319 318 319 321 322 323 323 322 321 320 319
294 291 286 286 284 281 282 283 286 289 295 300 304 307 307 309 310 312 314 315 316 317 318 318 319 319 319 319 318 317 317 319 319 319 319 320 322 325 325 324 325 324 323
292 290 289 285 281 283 282 283 285 290 296 302 304 307 311 312 313 315 317 316 317 319 321 320 319 319 319 320 320 318 317 317 315 316 316 317 319 322 324 327 329 330 328
294 290 286 284 284 283 281 281 286 293 298 301 305 309 311 315 317 317 317 318 320 321 322 321 321 320 320 320 320 319 318 317 315 315 315 314 317 322 327 328 330 328 325
290 289 288 287 283 278 276 283 291 295 297 300 306 311 315 316 317 318 319 321 322 322 322 323 324 322 321 322 321 319 318 318 316 317 319 321 323 322 326 325 324 322 321
Wind_Speed_850mb
12 15 19 22 25 28 30 31 31 32 31 28 27 28 31 34 35 36 37 38 39 41 43 47 48 50 49 50 49 48 44 46 62 87 88 91 90 91 88 80 85 80 76
15 18 21 23 26 28 30 31 31 28 25 24 25 28 31 32 33 36 39 42 45 47 49 51 52 52 53 53 53 53 52 49 53 81 87 94 89 83 89 85 86 83 78
16 19 22 25 27 30 31 32 29 26 23 22 24 25 28 33 38 41 44 48 51 52 52 54 54 54 53 50 52 51 53 50 54 66 89 86 82 81 90 81 86 86 79
18 20 23 26 28 31 32 30 27 24 23 23 24 27 31 35 40 44 48 52 54 54 55 54 53 51 51 50 49 53 52 53 56 62 76 84 67 85 85 77 89 87 83
21 23 26 29 32 33 33 31 27 25 24 24 26 29 34 39 45 50 52 55 57 56 55 53 52 49 50 45 53 51 50 56 59 60 68 74 67 85 84 71 74 88 84
25 27 29 32 35 36 34 31 29 28 27 28 30 34 39 43 46 50 55 58 58 57 55 56 53 52 49 51 49 40 43 55 48 55 67 61 77 82 79 65 75 77 87
29 30 31 34 37 38 36 34 34 33 33 34 36 38 41 46 51 55 58 59 57 56 56 55 52 53 48 58 49 49 60 38 39 50 52 60 76 76 66 66 62 72 73
31 33 35 38 41 40 39 38 39 39 39 39 40 43 47 52 55 58 61 60 59 57 55 53 51 45 55 47 50 60 66 61 57 40 46 62 65 62 59 56 66 71 72
33 35 37 42 42 42 41 40 41 42 42 42 44 47 51 54 58 61 63 61 60 58 55 52 50 54 48 44 46 61 69 66 53 52 57 60 60 60 60 60 64 66 75
35 37 41 43 43 42 41 41 43 43 42 44 46 50 54 57 60 61 61 58 57 57 55 54 53 52 42 38 45 60 69 64 63 71 68 61 56 57 56 56 56 58 63
37 40 43 44 43 43 42 40 42 43 44 45 48 51 55 59 61 61 57 54 53 53 55 59 59 49 39 41 42 56 60 58 69 68 68 65 62 60 58 55 53 53 57
39 44 46 46 45 43 43 43 44 44 46 49 52 55 57 59 61 58 54 51 44 47 50 56 56 46 46 47 58 64 53 62 66 69 69 67 65 63 61 57 54 52 51
44 47 48 48 47 46 45 44 44 44 47 50 54 58 58 60 61 56 52 50 47 43 47 47 59 61 65 67 65 61 61 62 65 66 66 64 61 61 60 58 53 52 51
47 48 50 52 50 49 47 45 45 46 49 52 55 57 59 62 62 57 54 53 52 51 56 60 59 63 62 60 55 52 52 54 57 60 62 61 61 60 58 57 60 59 61
49 51 51 51 51 50 49 47 47 47 50 53 53 55 60 64 61 56 47 48 48 54 55 60 62 60 60 59 55 52 52 53 56 58 61 63 63 63 61 58 58 59 60
49 50 50 51 53 53 51 49 49 49 50 51 50 52 56 61 59 53 46 38 46 59 61 64 62 62 62 63 62 62 57 57 58 60 61 63 65 64 65 61 58 58 61
51 52 53 54 54 53 52 52 52 49 49 50 48 49 55 59 56 54 50 38 51 57 58 60 61 62 63 64 65 64 64 62 61 61 63 62 63 64 65 63 61 61 61
55 57 59 57 55 54 53 53 52 50 51 50 46 49 53 55 54 55 56 59 56 52 59 61 63 63 64 66 68 69 68 66 65 65 65 65 64 64 65 64 63 64 63
61 62 60 57 55 53 53 53 51 51 51 49 48 48 52 53 52 51 54 56 60 59 59 60 61 65 65 66 67 69 69 67 67 66 65 66 65 65 65 63 63 62 62
65 63 61 57 53 52 52 51 50 49 48 47 48 52 51 53 50 48 49 54 58 61 63 66 65 65 66 66 66 67 69 67 66 65 64 65 65 64 65 63 61 62 60
64 60 58 55 52 49 48 48 46 47 44 44 47 48 51 56 54 53 54 55 58 62 65 67 66 66 64 63 63 63 63 64 63 64 63 62 62 63 61 60 59 57 57
58 56 53 49 46 45 43 42 43 42 41 45 46 43 46 48 51 54 56 59 61 63 66 69 67 62 60 61 62 65 65 64 61 60 60 59 60 59 58 57 56 55 55
50 46 43 42 40 38 38 38 37 38 40 46 46 45 43 45 49 53 57 60 64 65 61 59 61 61 59 58 57 58 61 58 57 57 60 61 61 60 57 56 55 55 55
40 39 39 35 34 33 32 32 34 37 43 44 45 45 46 48 51 54 59 63 63 58 55 58 59 60 61 58 54 50 52 53 56 57 58 61 60 56 55 53 52 53 52
37 33 31 30 29 28 29 30 34 39 42 43 42 43 45 50 54 58 61 60 56 57 57 57 57 58 57 54 51 51 53 53 53 52 52 53 53 47 46 51 55 56 53
32 30 28 26 25 27 29 32 34 38 38 38 39 43 48 52 57 61 57 54 56 57 58 58 56 54 52 51 51 54 52 49 48 48 53 54 54 48 56 61 61 62 59
Wind_Direction_850mb
343 345 343 345 343 340 336 334 329 328 328 329 335 341 343 342 343 342 342 342 340 339 338 338 337 335 334 334 334 338 334 326 314 318 324 330 332 331 334 334 333 337 340
336 338 338 335 334 329 326 322 321 321 323 328 334 338 338 337 339 339 338 336 336 336 335 336 337 335 335 337 337 336 334 329 317 316 326 330 333 331 334 331 331 336 340
325 327 325 324 323 322 321 318 316 317 317 322 326 330 334 337 338 337 337 337 336 335 335 335 333 332 333 333 335 334 331 328 326 320 322 329 331 328 332 332 327 334 340
311 310 311 314 318 319 317 314 310 307 308 314 318 328 332 332 335 336 337 336 331 329 329 330 330 331 330 332 335 333 336 332 329 322 322 326 326 327 331 334 327 335 338
296 301 309 314 317 318 317 311 302 296 296 304 312 319 326 332 334 333 331 329 326 327 328 328 328 327 327 330 334 335 333 327 324 325 320 326 322 329 335 334 323 331 334
295 300 305 312 315 317 312 301 292 288 293 300 312 317 322 325 325 326 328 329 326 327 328 327 325 328 323 325 334 332 325 324 330 317 321 317 318 326 329 329 326 329 330
289 294 303 310 314 313 308 300 293 292 295 298 302 310 316 318 322 327 329 328 324 326 326 325 322 323 320 326 340 321 326 330 320 319 315 311 319 325 324 323 323 322 323
289 296 304 310 312 309 304 297 290 287 289 294 299 305 311 320 324 327 327 326 324 324 325 325 323 321 321 327 331 317 322 324 330 317 310 318 320 319 318 318 316 316 317
292 297 305 308 306 305 300 292 288 285 286 291 299 307 314 319 323 326 326 325 324 324 325 325 325 321 324 329 315 312 317 325 324 316 316 316 314 315 316 314 320 322 322
291 297 301 304 305 302 296 290 284 284 292 298 303 309 314 319 323 323 324 323 321 322 323 325 326 324 326 323 316 313 318 328 320 312 315 318 317 316 315 317 320 320 322
290 295 300 301 300 297 292 291 292 292 293 297 303 309 313 317 320 323 322 321 320 322 318 322 326 328 322 315 317 312 322 314 304 313 316 319 320 319 319 319 320 318 316
292 298 300 299 298 297 297 295 291 291 296 301 306 310 312 314 318 321 321 320 320 315 316 317 322 321 315 317 317 318 315 309 312 315 316 319 320 321 320 321 320 317 313
295 299 299 297 297 295 293 289 289 293 297 303 308 310 311 313 318 321 321 318 317 317 314 314 310 315 318 317 319 319 316 314 314 315 317 319 321 321 321 321 321 320 316
299 302 298 295 294 291 289 290 292 295 299 304 306 307 309 313 320 320 319 321 324 323 318 315 315 315 314 314 315 316 316 317 317 318 318 319 320 321 322 323 324 325 321
299 297 295 295 292 290 290 291 291 293 296 300 303 306 311 316 319 320 319 318 325 310 306 312 316 316 318 320 320 320 319 319 318 317 317 319 320 320 321 322 323 322 321
297 302 302 298 294 292 291 289 289 290 294 300 302 305 309 312 313 315 314 316 302 299 312 315 317 318 320 321 322 323 324 323 320 319 318 318 319 319 319 321 321 320 320
299 302 301 298 294 291 288 289 289 287 294 297 298 303 308 309 312 315 316 312 309 311 314 316 316 318 320 320 320 321 321 320 318 318 316 317 318 318 317 319 321 321 321
296 299 299 298 294 291 289 288 288 289 293 298 301 306 308 309 314 315 313 311 315 314 312 314 315 317 318 317 317 316 316 316 316 315 314 314 314 314 314 316 317 318 320
293 295 296 295 293 290 288 288 288 289 294 299 301 306 309 309 310 311 311 313 314 314 313 315 316 316 317 316 315 314 315 316 315 314 313 311 311 311 311 313 314 314 316
292 294 294 293 291 288 287 288 287 289 295 299 304 308 309 307 311 310 312 313 314 315 316 317 317 317 317 317 316 314 314 316 315 314 313 312 312 311 313 314 314 313 314
292 293 293 290 288 287 284 284 285 290 294 296 305 306 309 311 315 315 316 315 315 315 316 315 317 318 318 317 317 316 317 317 318 317 317 317 316 317 320 319 318 316 315
293 293 291 288 285 285 285 284 286 290 292 299 303 306 306 308 310 313 315 316 317 318 317 316 318 320 321 320 319 318 317 318 319 318 319 321 322 323 323 322 321 320 319
294 291 286 286 284 281 282 283 286 289 295 300 304 307 307 309 310 312 314 315 316 317 318 318 319 319 319 319 318 317 317 319 319 319 319 320 322 325 325 324 325 324 323
292 290 289 285 281 283 282 283 285 290 296 302 304 307 311 312 313 315 317 316 317 319 321 320 319 319 319 320 320 318 317 317 315 316 316 317 319 322 324 327 329 330 328
294 290 286 284 284 283 281 281 286 293 298 301 305 309 311 315 317 317 317 318 320 321 322 321 321 320 320 320 320 319 318 317 315 315 315 314 317 322 327 328 330 328 325
290 289 288 287 283 278 276 283 291 295 297 300 306 311 315 316 317 318 319 321 322 322 322 323 324 322 321 322 321 319 318 318 316 317 319 321 323 322 326 325 324 322 321